Zurück zum Katalog

STARLINK-36911

AktivKommunikationVLEO
NORAD 68008·PAYLOAD·🇺🇸 United States

Gestartet Feb 27, 2026 von Vandenberg Space Force Base

Loading…

Nächste Überflüge (nächste 24 Stunden)

TLE

AktuellSource: CelesTrak SupGP

Epoche: Sep 14, 2026, 14:23 UTC

1 68008C 26039Y   26257.59979167 -.00028812  00000+0 -10435-2 0  2571
2 68008  43.0030  62.0737 0001648 271.7714 123.4847 15.27595857    11

Verfolge STARLINK-36911 in Echtzeit mit AllMySat

Download on the App Store